This is the latest recevied weather packets stored in our database for station/object LZ1HCO-25. If no packets are shown the sender has not sent any weather packets the latest 1 day(s).
| Time | Temp. | Humidity | Pressure | Rain* | Wind** | Luminosity | Snow |
|---|---|---|---|---|---|---|---|
| 1778059598 | 27.22° C | 39% | 967 hPa | - | - | 0 W/m² | - |
| 1778059287 | 27.78° C | 36% | 967 hPa | - | - | 0 W/m² | - |
| 1778058976 | 27.22° C | 37% | 968 hPa | - | - | 0 W/m² | - |
| 1778057537 | 26.11° C | 36% | 967 hPa | - | - | 0 W/m² | - |
| 1778056603 | 26.67° C | 40% | 968 hPa | - | - | 0 W/m² | - |
| 1778055669 | 27.22° C | 38% | 967 hPa | - | - | 0 W/m² | - |
| 1778055046 | 27.22° C | 40% | 967 hPa | - | - | 0 W/m² | - |
| 1778054112 | 27.22° C | 38% | 968 hPa | - | - | 0 W/m² | - |
| 1778053178 | 25.56° C | 40% | 967 hPa | - | - | 0 W/m² | - |
| 1778052555 | 25.56° C | 40% | 968 hPa | - | - | 0 W/m² | - |
| 1778052244 | 25.56° C | 39% | 968 hPa | - | - | 0 W/m² | - |
| 1778051932 | 25° C | 41% | 968 hPa | - | - | 0 W/m² | - |
| 1778051621 | 24.44° C | 41% | 968 hPa | - | - | 0 W/m² | - |
| 1778051310 | 23.89° C | 41% | 968 hPa | - | - | 0 W/m² | - |
| 1778050718 | 23.89° C | 41% | 968 hPa | - | - | 0 W/m² | - |
| 1778050095 | 23.89° C | 41% | 968 hPa | - | - | 0 W/m² | - |
| 1778049472 | 23.89° C | 41% | 968 hPa | - | - | 0 W/m² | - |
| 1778049161 | 22.78° C | 41% | 968 hPa | - | - | 0 W/m² | - |
| 1778048538 | 22.78° C | 42% | 968 hPa | - | - | 0 W/m² | - |
| 1778048227 | 22.78° C | 45% | 968 hPa | - | - | 0 W/m² | - |
| 1778047604 | 22.22° C | 46% | 968 hPa | - | - | 0 W/m² | - |
| 1778047293 | 21.67° C | 46% | 968 hPa | - | - | 0 W/m² | - |
| 1778046670 | 21.11° C | 52% | 968 hPa | - | - | 0 W/m² | - |
| 1778046047 | 20° C | 56% | 968 hPa | - | - | 0 W/m² | - |
| 1778045736 | 20° C | 60% | 968 hPa | - | - | 0 W/m² | - |
* Rain since midnight (hover to see other rain measurements)
** Current wind speed in m/s (hover to see current wind gust speed)